TimeCST,TemperatureF,Dew PointF,Humidity,Sea Level PressureIn,VisibilityMPH,Wind Direction,Wind SpeedMPH,Gust SpeedMPH,PrecipitationIn,Events,Conditions,WindDirDegrees,DateUTC
12:39 AM,33.1,33.1,100,29.50,1.0,NNW,17.3,-,0.05,Snow,Light Snow,340,2013-02-26 06:39:00
12:53 AM,33.1,33.1,100,29.51,1.0,NNW,18.4,-,0.05,Snow,Light Snow,340,2013-02-26 06:53:00
1:00 AM,33.1,33.1,100,29.51,2.0,NNW,18.4,-,0.01,Snow,Light Snow,340,2013-02-26 07:00:00
1:10 AM,33.1,33.1,100,29.51,2.0,NNW,20.7,27.6,0.01,Snow,Light Snow,340,2013-02-26 07:10:00
1:53 AM,33.1,33.1,100,29.52,2.0,NNW,20.7,26.5,0.02,Snow,Light Snow,340,2013-02-26 07:53:00
1:59 AM,33.1,33.1,100,29.51,3.0,NNW,20.7,-,0.00,Snow,Light Snow,340,2013-02-26 07:59:00
2:35 AM,33.1,33.1,100,29.52,2.0,NNW,20.7,-,0.00,Snow,Light Snow,340,2013-02-26 08:35:00
2:53 AM,33.1,33.1,100,29.53,2.0,NNW,19.6,26.5,0.01,Snow,Light Snow,330,2013-02-26 08:53:00
3:03 AM,33.1,33.1,100,29.52,0.8,NW,19.6,27.6,0.01,Snow,Light Snow,320,2013-02-26 09:03:00
3:22 AM,33.1,33.1,100,29.53,1.5,NW,17.3,23.0,0.03,Snow,Light Snow,320,2013-02-26 09:22:00
3:31 AM,33.1,33.1,100,29.53,4.0,NW,16.1,-,0.04,Snow,Light Snow,320,2013-02-26 09:31:00
3:53 AM,34.0,34.0,100,29.54,9.0,NW,19.6,26.5,0.04,Snow,Light Snow,320,2013-02-26 09:53:00
4:04 AM,34.0,34.0,100,29.54,9.0,NW,18.4,-,0.00,,Overcast,320,2013-02-26 10:04:00
4:53 AM,34.0,34.0,100,29.56,5.0,NNW,24.2,32.2,0.00,Snow,Light Snow,330,2013-02-26 10:53:00
5:18 AM,33.1,33.1,100,29.56,3.0,NNW,20.7,28.8,0.01,Snow,Light Snow,330,2013-02-26 11:18:00
5:25 AM,34.0,34.0,100,29.56,4.0,NW,19.6,28.8,0.02,Snow,Light Snow,320,2013-02-26 11:25:00
5:53 AM,35.1,34.0,96,29.58,8.0,NNW,18.4,31.1,0.02,,Overcast,330,2013-02-26 11:53:00
6:53 AM,36.0,35.1,97,29.60,7.0,NW,19.6,33.4,N/A,,Overcast,320,2013-02-26 12:53:00
7:53 AM,35.1,33.1,92,29.63,5.0,NNW,16.1,26.5,0.00,,Light Drizzle,330,2013-02-26 13:53:00
8:15 AM,36.0,33.1,89,29.63,5.0,NNW,21.9,27.6,0.00,,Overcast,330,2013-02-26 14:15:00
8:53 AM,36.0,33.1,89,29.68,5.0,NW,17.3,31.1,0.00,Rain,Light Rain,320,2013-02-26 14:53:00
9:03 AM,36.0,33.1,89,29.67,5.0,NW,21.9,27.6,0.00,Rain,Light Rain,320,2013-02-26 15:03:00
9:53 AM,37.0,32.0,82,29.70,6.0,NW,19.6,-,0.00,Rain,Light Rain,320,2013-02-26 15:53:00
10:53 AM,37.0,30.9,79,29.73,7.0,NW,17.3,-,0.00,,Overcast,320,2013-02-26 16:53:00
11:53 AM,39.0,32.0,76,29.75,7.0,NNW,16.1,26.5,N/A,,Overcast,330,2013-02-26 17:53:00
12:53 PM,39.0,32.0,76,29.75,7.0,NNW,23.0,31.1,N/A,,Overcast,330,2013-02-26 18:53:00
1:53 PM,41.0,32.0,70,29.75,8.0,NNW,17.3,-,N/A,,Overcast,330,2013-02-26 19:53:00
2:53 PM,42.1,33.1,70,29.76,9.0,NW,11.5,-,N/A,,Overcast,320,2013-02-26 20:53:00
3:53 PM,41.0,32.0,70,29.79,8.0,WNW,15.0,-,N/A,,Overcast,300,2013-02-26 21:53:00
4:53 PM,39.9,32.0,73,29.82,8.0,WNW,13.8,-,N/A,,Overcast,300,2013-02-26 22:53:00
5:17 PM,39.9,32.0,73,29.81,7.0,NW,11.5,-,N/A,,Overcast,310,2013-02-26 23:17:00
5:53 PM,39.0,32.0,76,29.83,8.0,NW,11.5,-,N/A,,Overcast,320,2013-02-26 23:53:00
6:53 PM,39.0,32.0,76,29.86,8.0,NW,10.4,-,N/A,,Overcast,320,2013-02-27 00:53:00
7:53 PM,37.9,30.9,76,29.89,8.0,WNW,10.4,-,N/A,,Overcast,300,2013-02-27 01:53:00
8:53 PM,37.9,30.9,76,29.92,8.0,NW,10.4,-,N/A,,Overcast,310,2013-02-27 02:53:00
9:08 PM,37.0,30.9,79,29.91,8.0,NW,8.1,-,N/A,,Overcast,320,2013-02-27 03:08:00
9:48 PM,35.6,30.2,81,29.91,8.0,NW,8.1,-,N/A,,Scattered Clouds,310,2013-02-27 03:48:00
9:53 PM,35.1,30.0,82,29.92,7.0,NW,6.9,-,N/A,,Partly Cloudy,320,2013-02-27 03:53:00
10:53 PM,33.1,28.9,85,29.93,8.0,WNW,6.9,-,N/A,,Partly Cloudy,290,2013-02-27 04:53:00
11:53 PM,32.0,28.0,85,29.94,7.0,WNW,4.6,-,N/A,,Scattered Clouds,290,2013-02-27 05:53:00